MHLCMHTG

Guest
Details From MHLC - Goloson Intl
To MHTG - Tegucigalpa Toncontin Intl
Flight Number -
Tags Generated
Created
Modified
Stats Distance 103 nm / 191 km
Max Altitude 0 ft / 0 m
Waypoints 2
Social Downloads 4
Likes 0
Share VATSIM

Download

Looking for another format? Having issues loading an existing format? Contact us
Advertisement - Login to hide

Notes

Generated

Route

MHLC MHTG

ID Type Via Altitude Latitude Longitude Leg Dist Tot Dist Heading (true) Name
O MHLC APT - 0 ft / 0 m 15.73719˚ -86.86596˚ - 0 nm - -
O MHTG APT - 0 ft / 0 m 14.05292˚ -87.22000˚ 103 nm 103 nm 192° / 191° -

Altitude Profile

Advertisement - Login to hide

MHLC

Details ICAO MHLC (LCE)
Name Goloson Intl
Region Honduras
Timezone America/Tegucigalpa (UTC-6.0)
Stats Elevation 49 ft / 15 m (AMSL)
Location 15.742480° -86.853036°
Runways 1
Magnetic Variation 1.131° W

METAR

MHLC 181200Z 00000KT 9999 BKN024TCU 22/22 Q1015 A2997 BECMG 8000 VCSH

Decode

TAF

Not found

Departure Runways

ID Width Length Bearing (true) Bearing (mag) Surface Threshold Offset Overrun Length
07 147 ft / 45 m 9,867 ft / 3,008 m 66.97° 68.10° Asphalt 813 ft / 248 m 0 ft / 0 m
25 147 ft / 45 m 9,867 ft / 3,008 m 246.98° 248.11° Asphalt 200 ft / 61 m 804 ft / 245 m

MHTG

Details ICAO MHTG (TGU)
Name Tegucigalpa Toncontin Intl
Region Honduras
Timezone America/Tegucigalpa (UTC-6.0)
Stats Elevation 3,294 ft / 1,004 m (AMSL)
Location 14.060883° -87.217197°
Runways 1
Magnetic Variation 0.661° W

METAR

MHTG 181235Z 02006KT 6000 3000N -DZ FEW008 BKN022 18/17 Q1020 A3012 NOSIG

Decode

TAF

Not found

Destination Runways

ID Width Length Bearing (true) Bearing (mag) Surface Threshold Offset Overrun Length
02 148 ft / 45 m 6,140 ft / 1,872 m 18.87° 19.53° Asphalt 670 ft / 204 m 100 ft / 30 m
20 148 ft / 45 m 6,140 ft / 1,872 m 198.87° 199.53° Asphalt 0 ft / 0 m 200 ft / 61 m

Popular Alternatives